Weather History for Melbourne, FL

Change the Weather History Date:

Monday, March 25, 2013

  Actual Average Record
Temperature  
Mean Temperature 65 °F 67 °F  
Max Temperature 77 °F 78 °F 92 °F (1974)
Min Temperature 52 °F 56 °F 35 °F (1968)
Degree Days  
Heating Degree Days 0 2  
Month to date heating degree days 135 64  
Since 1 July heating degree days 419 553  
Cooling Degree Days 0 4  
Month to date cooling degree days 47 75  
Year to date cooling degree days 253 173  
Growing Degree Days 15 (Base 50)    
Moisture  
Dew Point 50 °F    
Average Humidity 59    
Maximum Humidity 100    
Minimum Humidity 17    
Precipitation  
Precipitation 0.00 in 0.11 in 1.63 in (1992)
Month to date precipitation 0.58 2.68  
Year to date precipitation 3.24 7.48  
Sea Level Pressure  
Sea Level Pressure 29.84 in    
Wind  
Wind Speed 12 mph (West)    
Max Wind Speed 24 mph    
Max Gust Speed 30 mph    
Visibility 9 miles    
Events      
T = Trace of Precipitation, MM = Missing Value Source: NWS Daily Summary

Daily Weather History Graph

Daily Weather History Graph

Search for Another Location

Airport:

Trip Planner

Search our weather history database for the weather conditions in past years. The results will help you decide how hot, cold, wet, or windy it might be!

Date:

Astronomy

Mar. 25, 2013 Rise Set
Actual Time 7:20 AM EDT 7:36 PM EDT
Civil Twilight 6:57 AM EDT 8:00 PM EDT
Nautical Twilight 6:29 AM EDT 8:27 PM EDT
Astronomical Twilight 6:01 AM EDT 8:55 PM EDT
Moon 6:11 PM EDT (3/25) 5:55 AM EDT (3/25)
Length of Visible Light 13h 03m
Length of Day
12h 16m
Waxing Gibbous, 96% of the Moon is Illuminated
Mar 25
Waxing Gibbous
Mar 27
Full
Apr 3
Last Quarter
Apr 10
New
Apr 18
First Quarter

Hourly Weather History & Observations

Time (EDT) Temp. Dew Point Humidity Pressure Visibility Wind Dir Wind Speed Gust Speed Precip Events Conditions
12:15 AM 69.8 °F 69.8 °F 100% 29.73 in 7.0 mi SW 8.1 mph - N/A   Scattered Clouds
12:24 AM 69.8 °F 69.8 °F 100% 29.74 in 7.0 mi SW 10.4 mph - N/A   Mostly Cloudy
12:53 AM 70.0 °F 70.0 °F 100% 29.74 in 6.0 mi SW 10.4 mph - N/A   Mostly Cloudy
1:42 AM 69.8 °F 69.8 °F 100% 29.74 in 6.0 mi WSW 9.2 mph - N/A   Scattered Clouds
1:53 AM 70.0 °F 70.0 °F 100% 29.74 in 6.0 mi WSW 9.2 mph - N/A   Partly Cloudy
2:53 AM 69.1 °F 68.0 °F 96% 29.73 in 7.0 mi SW 6.9 mph - N/A   Clear
3:53 AM 68.0 °F 66.9 °F 96% 29.73 in 7.0 mi West 12.7 mph - N/A   Clear
4:53 AM 66.0 °F 64.0 °F 93% 29.74 in 9.0 mi West 13.8 mph - N/A   Clear
5:53 AM 64.0 °F 63.0 °F 96% 29.75 in 9.0 mi West 15.0 mph - N/A   Clear
6:53 AM 62.1 °F 61.0 °F 96% 29.78 in 9.0 mi WNW 8.1 mph - N/A   Clear
7:53 AM 62.1 °F 60.1 °F 93% 29.80 in 10.0 mi WNW 6.9 mph - N/A   Scattered Clouds
8:53 AM 64.9 °F 62.1 °F 90% 29.83 in 10.0 mi WNW 12.7 mph - N/A   Clear
9:53 AM 66.9 °F 59.0 °F 76% 29.86 in 10.0 mi NW 13.8 mph - N/A   Mostly Cloudy
10:36 AM 66.2 °F 57.2 °F 73% 29.89 in 10.0 mi NW 15.0 mph - N/A   Scattered Clouds
10:53 AM 68.0 °F 55.9 °F 65% 29.89 in 10.0 mi NW 12.7 mph - N/A   Scattered Clouds
11:53 AM 70.0 °F 45.0 °F 41% 29.91 in 10.0 mi WNW 12.7 mph - N/A   Clear
12:53 PM 72.0 °F 32.0 °F 23% 29.91 in 10.0 mi NW 16.1 mph 26.5 mph N/A   Clear
1:53 PM 73.0 °F 30.9 °F 21% 29.88 in 10.0 mi WNW 15.0 mph 25.3 mph N/A   Clear
2:53 PM 75.0 °F 33.1 °F 22% 29.86 in 10.0 mi West 15.0 mph 19.6 mph N/A   Clear
3:53 PM 75.9 °F 28.0 °F 17% 29.86 in 10.0 mi WNW 16.1 mph 23.0 mph N/A   Clear
4:53 PM 75.9 °F 28.9 °F 18% 29.86 in 10.0 mi NNW 15.0 mph 23.0 mph N/A   Clear
5:53 PM 73.9 °F 26.1 °F 17% 29.87 in 10.0 mi WNW 12.7 mph - N/A   Clear
6:53 PM 72.0 °F 27.0 °F 19% 29.88 in 10.0 mi WNW 10.4 mph - N/A   Clear
7:53 PM 66.0 °F 35.1 °F 32% 29.91 in 10.0 mi West 4.6 mph - N/A   Clear
8:53 PM 62.1 °F 36.0 °F 38% 29.94 in 10.0 mi West 8.1 mph - N/A   Clear
9:53 PM 59.0 °F 32.0 °F 36% 29.97 in 10.0 mi West 10.4 mph - N/A   Clear
10:53 PM 55.0 °F 37.0 °F 51% 30.01 in 10.0 mi West 10.4 mph - N/A   Clear
11:53 PM 55.0 °F 39.9 °F 57% 30.02 in 10.0 mi WNW 12.7 mph - N/A   Clear